This is the latest recevied weather packets stored in our database for station/object KN4PLO. If no packets are shown the sender has not sent any weather packets the latest 1 day(s).
| Time | Temp. | Humidity | Pressure | Rain* | Wind** | Luminosity | Snow |
|---|---|---|---|---|---|---|---|
| 1778014645 | 23.89° C | 100% | - | 0 mm | 4.47 m/s, 234° | - | - |
| 1778014384 | 23.89° C | 100% | - | 0 mm | 4.47 m/s, 244° | - | - |
| 1778014072 | 23.89° C | 100% | - | 0 mm | 6.71 m/s, 214° | - | - |
| 1778014044 | 23.89° C | 100% | - | 0 mm | 5.81 m/s, 221° | - | - |
| 1778013772 | 23.89° C | 100% | - | 0 mm | 4.92 m/s, 267° | - | - |
| 1778013472 | 23.89° C | 100% | - | 0 mm | 1.79 m/s, 234° | - | - |
| 1778013445 | 23.89° C | 100% | - | 0 mm | 6.71 m/s, 160° | - | - |
| 1778013172 | 23.89° C | 100% | - | 0 mm | 5.36 m/s, 245° | - | - |
| 1778012845 | 23.89° C | 100% | - | 0 mm | 7.15 m/s, 164° | - | - |
| 1778012572 | 23.89° C | 100% | - | 0 mm | 9.83 m/s, 202° | - | - |
| 1778012272 | 24.44° C | 100% | - | 0 mm | 8.05 m/s, 217° | - | - |
| 1778012247 | 24.44° C | 100% | - | 0 mm | 6.71 m/s, 246° | - | - |
| 1778011972 | 23.89° C | 100% | - | 0 mm | 1.79 m/s, 209° | - | - |
| 1778011672 | 23.89° C | 100% | - | 0 mm | 2.68 m/s, 182° | - | - |
| 1778011644 | 23.89° C | 100% | - | 0 mm | 5.81 m/s, 196° | - | - |
| 1778011372 | 23.89° C | 100% | - | 0 mm | 2.68 m/s, 211° | - | - |
| 1778011072 | 23.89° C | 100% | - | 0 mm | 6.26 m/s, 229° | - | - |
| 1778011047 | 23.89° C | 100% | - | 0 mm | 5.36 m/s, 205° | - | - |
| 1778010772 | 23.89° C | 100% | - | 0 mm | 5.36 m/s, 215° | - | - |
| 1778010472 | 23.89° C | 100% | - | 0 mm | 3.13 m/s, 200° | - | - |
| 1778010444 | 23.89° C | 100% | - | 0 mm | 4.92 m/s, 187° | - | - |
| 1778010172 | 23.33° C | 100% | - | 0 mm | 4.92 m/s, 164° | - | - |
| 1778009872 | 23.33° C | 100% | - | 0 mm | 4.47 m/s, 167° | - | - |
| 1778009845 | 23.33° C | 100% | - | 0 mm | 6.26 m/s, 175° | - | - |
| 1778009572 | 23.33° C | 100% | - | 0 mm | 2.24 m/s, 183° | - | - |
* Rain latest hour (hover to see other rain measurements)
** Current wind speed in m/s (hover to see current wind gust speed)